x

Tanner Bank - 121nm West Of San Diego, Ca (46047) Wave Buoy

10:50 - Wed 20th Sep 2017 All times are PDT. -7 hours from GMT.

  • Sig Wave height 10.2ft
  • Swell Direction
  • Peak Period 14s
  • Average Period 8s
  • Wind
    20mph, 25mph gusts
  • Sea Temp 67°f
  • Ar Temp 65°f
  • Sea Pressure 1011.6mb
  • Tanner Bank - 121nm West Of San Diego, Ca
  • Tanner Bank - 121nm West Of San Diego, Ca

More Historic Weather Station data

Upgrade to MSW Pro to gain access to the past 30 days of data for over 8000 Wavebouys and Weather Stations around the globe.

Join

Comparision Forecast

View Surf forecast
   
Qua 09/20 10:50 10ft 14s 8s 20 25 mph 1011.6mb 67f 65f
9:50 9ft 13s 7s 22 27 mph 1011.5mb 67f 65f
8:50 10ft 14s 7s 22 27 mph 1011.2mb 67f 65f
7:50 9ft 15s 8s 22 25 mph 1010.7mb 67f 65f
6:50 8.5ft 13s 7s 18 22 mph 1010.7mb 67f 65f
5:50 9ft 15s 8s 18 22 mph 1010.6mb 67f 66f
4:50 9ft 15s 8s 16 18 mph 1010.7mb 67f 65f
3:50 8.5ft 15s 8s 13 18 mph 1011.2mb 67f 65f
2:50 10ft 15s 8s 13 16 mph 1011.6mb 67f 65f
1:50 10ft 15s 8s 13 16 mph 1012mb 67f 65f
12:50 11ft 14s 8s 13 18 mph 1012.5mb 67f 65f
11:50 10ft 15s 8s 16 18 mph 1012.7mb 67f 65f
10:50 9ft 9s 8s 16 18 mph 1012.7mb 67f 65f
9:50 9.5ft 9s 7s 20 22 mph 1012.2mb 67f 65f
8:50 9ft 16s 7s 22 25 mph 1011.9mb 67f 64f
7:50 9ft 9s 7s 22 25 mph 1011.4mb 67f 65f
6:50 9ft 16s 7s 20 25 mph 1011.1mb 67f 65f
5:50 8ft 9s 6s 18 22 mph 1011mb 67f 65f
4:50 8ft 9s 6s 20 22 mph 1011.1mb 67f 65f
3:50 8ft 7s 6s 20 25 mph 1011.1mb 66f 65f
2:50 9ft 8s 6s 18 25 mph 1011.6mb 66f 65f
1:50 9ft 9s 6s 22 27 mph 1011.9mb 67f 65f
12:50 9ft 8s 6s 22 25 mph 1012.2mb 67f 65f
Ter 09/19 11:50 8ft 8s 6s 22 27 mph 1012.6mb 67f 65f
10:50 8ft 8s 6s 22 27 mph 1012.7mb 67f 65f
9:50 8.5ft 7s 6s 22 27 mph 1012.6mb 67f 65f
8:50 8ft 7s 6s 22 27 mph 1012.5mb 67f 65f
7:50 7ft 8s 6s 20 25 mph 1012.3mb 67f 65f
6:50 7.5ft 8s 6s 22 27 mph 1012mb 67f 65f
5:50 7.5ft 8s  -  22 27 mph 1012.1mb 67f 65f
4:50 7ft 8s 6s 22 27 mph 1012.4mb 67f 65f
3:50 7.5ft 9s 6s 22 27 mph 1012.7mb 67f 65f
2:50 7.5ft 8s 6s 22 25 mph 1012.6mb 67f 65f
1:50 7ft 8s 6s 25 29 mph 1013.2mb 67f 65f
12:50 7ft 8s 6s 22 27 mph 1013.8mb 67f 65f
11:50 7.5ft 8s 6s 22 27 mph 1014.3mb 66f 65f
10:50 7ft 8s 6s 20 25 mph 1014.8mb 66f 65f
9:50 7ft 8s 6s 22 27 mph 1014.7mb 66f 65f
8:50 7.5ft 7s 6s 22 27 mph 1014mb 67f 65f
7:50 7.5ft 7s 6s 25 29 mph 1013.7mb 67f 65f
6:50 7ft 8s 6s 25 27 mph 1013.4mb 67f 65f
5:50 6.5ft 8s 6s 22 27 mph 1013.2mb 67f 65f
4:50 6ft 8s 5s 20 27 mph 1013.2mb 67f 66f
3:50 6ft 7s 5s 22 25 mph 1013mb 67f 66f
2:50 6ft 8s 5s 20 25 mph 1013.1mb 67f 65f
1:50 6ft 8s 5s 22 27 mph 1013.4mb 67f 65f
12:50 6ft 7s 5s 22 27 mph 1013.5mb 67f 65f
Seg 09/18 11:50 6ft 6s 5s 20 25 mph 1013.9mb 67f 66f
10:50 6ft 7s 6s 18 22 mph 1013.9mb 67f 66f
9:50 6ft 6s 6s 20 25 mph 1013.5mb 67f 65f
8:50 6ft 8s 6s 18 22 mph 1013.4mb 67f 66f
7:50 5.5ft 5s 5s 20 25 mph 1013.1mb 67f 66f
6:50 5ft 6s 5s 20 25 mph 1012.9mb 67f 65f
5:50 5.5ft 8s 5s 18 25 mph 1012.9mb 67f 65f
4:50 5ft 8s 5s 16 20 mph 1013.1mb 67f 65f
3:50 5ft 8s 6s 18 22 mph 1013.4mb 67f 66f
2:50 5ft 8s 6s 16 18 mph 1013.9mb 67f 65f
1:50 5.5ft 8s 6s 18 22 mph 1014.2mb 67f 65f
12:50 5ft 7s 6s 16 18 mph 1014.4mb 67f 65f
11:50 5ft 8s 6s 11 13 mph 1015.1mb 67f 65f
10:50 4.5ft 8s 6s 11 13 mph 1015mb 67f 65f
9:50 4.5ft 8s 6s 9 13 mph 1015mb 67f 64f
8:50 4.5ft 8s 6s 9 13 mph 1014.4mb 67f 64f
7:50 4.5ft 8s 6s 11 13 mph 1013.9mb 67f 64f
6:50 4ft 8s 6s 11 16 mph 1013.4mb 67f 64f
5:50 4ft 8s 6s 9 13 mph 1013.3mb 67f 64f
4:50 4ft 11s 6s 9 13 mph 1013.2mb 67f 64f
3:50 3.5ft 11s 6s 9 13 mph 1013.4mb 67f 64f
2:50 3.5ft 8s 6s 11 16 mph 1013.6mb 67f 64f
1:50 4.5ft 8s 6s 13 18 mph 1013.9mb 67f 64f
12:50 4.5ft 12s 6s 11 16 mph 1013.9mb 67f 65f
Dom 09/17 11:50 4ft 8s 6s 11 16 mph 1014.1mb 67f 65f
10:50 4.5ft 8s 6s 13 18 mph 1014.1mb 67f 65f
9:50 4.5ft 12s 6s 11 13 mph 1014mb 67f 65f
8:50 4.5ft 8s 6s 13 16 mph 1013.7mb 67f 65f
7:50 4ft 12s  -  13 16 mph 1013.2mb 67f 65f
6:50 3.5ft 8s 6s 13 18 mph 1013.2mb 67f 65f
5:50 4ft 11s 7s 11 13 mph 1013.4mb 67f 65f
4:50 4ft 13s 7s 11 13 mph 1013.9mb 67f 65f
3:50 3.5ft 8s 6s 11 13 mph 1014mb 67f 65f
2:50 4ft 8s 6s 13 16 mph 1014.4mb 67f 65f
1:50 4.5ft 8s 6s 16 18 mph 1014.7mb 67f 65f
12:50 4ft 13s 6s 13 16 mph 1015.3mb 67f 65f
11:50 3.5ft 11s 6s 11 16 mph 1015.6mb 67f 65f
10:50 3.5ft 13s 6s 7 11 mph 1015.6mb 67f 65f
9:50 3.5ft 11s 6s 2 4 mph 1015mb 67f 65f
8:50 3.5ft 13s 6s 7 9 mph 1014.5mb 67f 65f
7:50 3.5ft 10s 6s 7 9 mph 1014.1mb 67f 65f